Date String (YYYY-MM-DD hh:mm:ss) UTC,Instrument flags,Ambient pressure (hPa),Sample flow (lpm),Bypass flow (lpm),Sample temperature (°C),Ambient temperature (°C),ASC tube jacket temperature (°C),LED temperature (°C),Box temperature (°C),Sample RH (%),Span deviation,Mass concentration (μg/m³),Mass concentration (μg/m³),Mass concentration (μg/m³)
DateTimeUTC,F1_M11,P_M11,Q1_M11,Q2_M11,T1_M11,T2_M11,T3_M11,T4_M11,T5_M11,U1_M11,ZSPAN_M11,X0_M11,X2_M11,X1_M11
2022-04-19 21:00:00,,0812.8,5.02,0.00,30.0,29.3,00.0,38.9,31.8,05.5,0000.0,0012.45,0004.52,0002.67
2022-04-19 21:01:00,,0812.8,4.99,0.00,30.1,29.4,00.0,38.9,31.8,05.5,0000.0,0012.51,0004.53,0002.68
2022-04-19 21:02:00,,0812.8,5.00,0.00,30.1,29.4,00.0,38.9,31.8,05.7,0000.0,0011.78,0004.57,0002.71
2022-04-19 21:03:00,,0812.7,5.01,0.00,30.1,29.4,00.0,38.9,31.9,05.9,0000.0,0012.08,0004.62,0002.71
2022-04-19 21:04:00,,0812.7,4.99,0.00,30.1,29.4,00.0,38.9,31.9,05.9,0000.0,0012.53,0004.66,0002.71
2022-04-19 21:05:00,,0812.7,5.01,0.00,30.1,29.5,00.0,39.0,31.9,05.7,0000.0,0012.61,0004.71,0002.74
2022-04-19 21:06:00,,0812.7,4.99,0.00,30.2,29.5,00.0,39.0,31.9,05.8,0000.0,0012.77,0004.79,0002.75
2022-04-19 21:07:00,,0812.8,5.01,0.00,30.2,29.5,00.0,39.0,31.9,05.7,0000.0,0012.92,0004.76,0002.73
2022-04-19 21:08:00,,0812.7,5.00,0.00,30.2,29.5,00.0,39.0,32.0,05.9,0000.0,0012.22,0004.72,0002.75
2022-04-19 21:09:00,,0812.7,5.01,0.00,30.2,29.5,00.0,39.0,32.0,05.6,0000.0,0012.25,0004.74,0002.76
2022-04-19 21:10:00,,0812.7,4.99,0.00,30.2,29.5,00.0,39.0,32.0,05.6,0000.0,0012.33,0004.76,0002.74
2022-04-19 21:11:00,,0812.7,5.01,0.00,30.2,29.6,00.0,39.0,32.0,05.6,0000.0,0013.10,0004.78,0002.75
2022-04-19 21:12:00,,0812.7,4.99,0.00,30.2,29.6,00.0,39.1,32.0,05.5,0000.0,0013.01,0004.78,0002.76
2022-04-19 21:13:00,,0812.6,5.00,0.00,30.2,29.6,00.0,39.1,32.0,05.3,0000.0,0013.81,0004.90,0002.78
2022-04-19 21:14:00,,0812.7,5.00,0.00,30.2,29.6,00.0,39.1,32.0,05.5,0000.0,0013.92,0004.90,0002.76
2022-04-19 21:15:00,,0812.6,4.99,0.00,30.3,29.5,00.0,39.1,32.0,05.7,0000.0,0013.57,0004.89,0002.77
2022-04-19 21:16:00,,0812.6,5.01,0.00,30.2,28.1,00.0,39.1,31.7,05.8,0000.0,0013.37,0004.90,0002.77
2022-04-19 21:17:00,,0812.6,5.00,0.00,30.1,26.4,00.0,39.1,31.3,05.8,0000.0,0013.51,0004.92,0002.77
2022-04-19 21:18:00,,0812.5,5.02,0.00,30.0,26.5,00.0,39.0,31.3,05.7,0000.0,0013.21,0004.85,0002.79
2022-04-19 21:19:00,,0812.4,5.00,0.00,29.9,26.9,00.0,39.0,31.4,05.8,0000.0,0013.36,0004.92,0002.80
2022-04-19 21:20:00,,0812.5,4.99,0.00,29.9,27.3,00.0,38.9,31.4,05.8,0000.0,0013.90,0004.95,0002.79
2022-04-19 21:21:00,,0812.5,4.99,0.00,29.9,27.7,00.0,38.9,31.5,05.9,0000.0,0014.48,0004.93,0002.82
2022-04-19 21:22:00,,0812.5,5.00,0.00,29.9,28.0,00.0,38.9,31.5,06.1,0000.0,0013.81,0004.89,0002.81
2022-04-19 21:23:00,,0812.4,5.01,0.00,29.9,28.3,00.0,38.9,31.6,05.9,0000.0,0013.44,0004.84,0002.78
2022-04-19 21:24:00,,0812.3,4.99,0.00,30.0,28.5,00.0,38.9,31.6,05.8,0000.0,0012.85,0004.81,0002.79
2022-04-19 21:25:00,,0812.3,5.00,0.00,30.0,28.6,00.0,38.9,31.7,05.8,0000.0,0012.78,0004.81,0002.80
2022-04-19 21:26:00,,0812.4,5.00,0.00,30.0,28.8,00.0,38.9,31.7,05.7,0000.0,0012.76,0004.83,0002.80
2022-04-19 21:27:00,,0812.4,5.00,0.00,30.0,28.9,00.0,38.9,31.7,05.8,0000.0,0012.64,0004.82,0002.80
2022-04-19 21:28:00,,0812.3,5.00,0.00,30.0,29.0,00.0,38.9,31.8,05.8,0000.0,0012.58,0004.81,0002.79
2022-04-19 21:29:00,,0812.3,5.00,0.00,30.0,29.0,00.0,38.9,31.8,05.6,0000.0,0012.68,0004.82,0002.78
2022-04-19 21:30:00,,0812.3,5.00,0.00,30.0,29.1,00.0,38.9,31.8,05.6,0000.0,0012.40,0004.79,0002.80
2022-04-19 21:31:00,,0812.3,5.00,0.00,30.1,29.1,00.0,38.9,31.8,05.6,0000.0,0011.51,0004.72,0002.82
2022-04-19 21:32:00,,0812.2,4.99,0.00,30.1,29.2,00.0,38.9,31.8,05.6,0000.0,0010.78,0004.72,0002.80
2022-04-19 21:33:00,,0812.2,5.01,0.00,30.1,29.2,00.0,38.9,31.9,05.6,0000.0,0010.87,0004.79,0002.81
2022-04-19 21:34:00,,0812.2,4.99,0.00,30.1,29.3,00.0,39.0,31.9,05.6,0000.0,0010.96,0004.83,0002.82
2022-04-19 21:35:00,,0812.2,5.01,0.00,30.2,29.3,00.0,39.0,31.9,05.6,0000.0,0011.02,0004.80,0002.80
2022-04-19 21:36:00,,0812.2,4.99,0.00,30.2,29.3,00.0,39.0,32.0,05.8,0000.0,0011.31,0004.81,0002.79
2022-04-19 21:37:00,,0812.2,5.01,0.00,30.2,29.4,00.0,39.0,32.0,05.5,0000.0,0011.61,0004.84,0002.80
2022-04-19 21:38:00,,0812.1,4.99,0.00,30.2,29.4,00.0,39.0,32.0,05.5,0000.0,0011.67,0004.85,0002.81
2022-04-19 21:39:00,,0812.1,5.02,0.00,30.2,29.4,00.0,39.0,32.0,05.6,0000.0,0011.82,0004.87,0002.81
2022-04-19 21:40:00,,0812.1,4.99,0.00,30.2,29.4,00.0,39.1,32.0,05.5,0000.0,0012.17,0004.88,0002.80
2022-04-19 21:41:00,,0812.1,5.01,0.00,30.3,28.7,00.0,39.1,31.8,05.4,0000.0,0012.35,0004.84,0002.77
2022-04-19 21:42:00,,0812.1,5.01,0.00,30.1,26.4,00.0,39.1,31.3,05.7,0000.0,0013.15,0004.89,0002.75
2022-04-19 21:43:00,,0812.0,4.98,0.00,30.0,25.6,00.0,39.0,31.1,05.6,0000.0,0013.22,0004.90,0002.73
2022-04-19 21:44:00,,0812.0,5.02,0.00,29.9,26.0,00.0,39.0,31.2,05.7,0000.0,0014.28,0004.85,0002.73
2022-04-19 21:45:00,,0812.0,5.00,0.00,29.8,26.5,00.0,38.9,31.2,05.8,0000.0,0014.45,0004.85,0002.73
2022-04-19 21:46:00,,0812.0,5.00,0.00,29.8,26.9,00.0,38.9,31.3,05.7,0000.0,0014.31,0004.84,0002.71
2022-04-19 21:47:00,,0812.0,4.98,0.00,29.8,27.3,00.0,38.8,31.4,05.7,0000.0,0013.92,0004.78,0002.71
2022-04-19 21:48:00,,0812.0,5.02,0.00,29.8,27.7,00.0,38.8,31.4,05.7,0000.0,0013.73,0004.70,0002.70
2022-04-19 21:49:00,,0812.0,4.98,0.00,29.8,27.9,00.0,38.8,31.4,05.7,0000.0,0013.88,0004.70,0002.67
2022-04-19 21:50:00,,0812.0,5.01,0.00,29.8,28.1,00.0,38.8,31.5,05.6,0000.0,0013.77,0004.65,0002.64
2022-04-19 21:51:00,,0812.0,5.00,0.00,29.8,28.3,00.0,38.8,31.5,05.5,0000.0,0013.32,0004.64,0002.65
2022-04-19 21:52:00,,0812.1,4.99,0.00,29.8,28.5,00.0,38.8,31.5,05.6,0000.0,0013.79,0004.67,0002.66
2022-04-19 21:53:00,,0812.0,5.01,0.00,29.9,28.6,00.0,38.8,31.6,05.8,0000.0,0013.40,0004.69,0002.65
2022-04-19 21:54:00,,0812.0,5.01,0.00,29.9,28.7,00.0,38.8,31.7,05.9,0000.0,0013.85,0004.66,0002.65
2022-04-19 21:55:00,,0812.0,4.99,0.00,29.9,28.8,00.0,38.8,31.7,05.7,0000.0,0013.11,0004.65,0002.63
2022-04-19 21:56:00,,0812.0,5.00,0.00,29.9,28.9,00.0,38.8,31.7,05.8,0000.0,0012.87,0004.66,0002.61
2022-04-19 21:57:00,,0812.0,5.00,0.00,30.0,29.0,00.0,38.8,31.8,06.0,0000.0,0012.93,0004.65,0002.60
2022-04-19 21:58:00,,0812.0,4.99,0.00,30.0,29.1,00.0,38.8,31.7,05.7,0000.0,0012.89,0004.68,0002.61
2022-04-19 21:59:00,,0811.9,5.02,0.00,30.0,29.1,00.0,38.8,31.8,05.8,0000.0,0012.89,0004.68,0002.61
